TimeEDT,TemperatureF,Dew PointF,Humidity,Sea Level PressureIn,VisibilityMPH,Wind Direction,Wind SpeedMPH,Gust SpeedMPH,PrecipitationIn,Events,Conditions,WindDirDegrees,DateUTC
12:53 AM,45.0,30.9,58,30.10,10.0,SW,10.4,-,N/A,,Clear,220,2013-04-25 04:53:00
1:53 AM,45.0,30.9,58,30.10,10.0,SSW,13.8,-,N/A,,Clear,210,2013-04-25 05:53:00
2:53 AM,44.1,32.0,63,30.08,10.0,SSW,13.8,-,N/A,,Clear,210,2013-04-25 06:53:00
3:53 AM,44.1,32.0,63,30.07,10.0,SW,16.1,-,N/A,,Clear,220,2013-04-25 07:53:00
4:53 AM,45.0,30.9,58,30.05,10.0,SW,19.6,28.8,N/A,,Mostly Cloudy,220,2013-04-25 08:53:00
5:53 AM,45.0,30.9,58,30.04,10.0,SW,20.7,28.8,N/A,,Overcast,220,2013-04-25 09:53:00
6:53 AM,43.0,35.1,74,30.06,8.0,WSW,24.2,29.9,0.01,Rain,Light Rain,240,2013-04-25 10:53:00
7:35 AM,39.2,33.8,81,30.06,8.0,SW,15.0,26.5,0.10,Rain,Light Rain,230,2013-04-25 11:35:00
7:53 AM,39.0,35.1,86,30.07,10.0,SW,13.8,-,0.11,Rain,Light Rain,220,2013-04-25 11:53:00
8:09 AM,39.2,35.6,87,30.05,10.0,SW,13.8,-,0.00,,Overcast,220,2013-04-25 12:09:00
8:53 AM,42.1,36.0,79,30.08,10.0,SW,13.8,-,0.00,,Overcast,230,2013-04-25 12:53:00
9:05 AM,42.8,37.4,81,30.07,10.0,SW,16.1,-,N/A,,Overcast,230,2013-04-25 13:05:00
9:24 AM,42.8,37.4,81,30.08,10.0,SW,18.4,-,N/A,,Overcast,230,2013-04-25 13:24:00
9:53 AM,42.1,35.1,76,30.11,9.0,West,15.0,29.9,0.00,Rain,Light Rain,260,2013-04-25 13:53:00
10:04 AM,42.8,35.6,76,30.09,10.0,West,12.7,-,0.00,,Mostly Cloudy,260,2013-04-25 14:04:00
10:43 AM,42.8,35.6,76,30.11,10.0,West,12.7,24.2,0.00,,Overcast,280,2013-04-25 14:43:00
10:53 AM,43.0,35.1,74,30.14,10.0,West,16.1,23.0,0.00,,Overcast,280,2013-04-25 14:53:00
11:42 AM,44.6,33.8,66,30.15,10.0,WNW,15.0,24.2,N/A,,Scattered Clouds,290,2013-04-25 15:42:00
11:53 AM,44.1,34.0,68,30.17,10.0,WNW,11.5,19.6,N/A,,Mostly Cloudy,300,2013-04-25 15:53:00
12:53 PM,46.0,35.1,66,30.19,10.0,West,15.0,24.2,N/A,,Scattered Clouds,280,2013-04-25 16:53:00
1:53 PM,46.0,33.1,61,30.22,10.0,North,-9999.0,-,N/A,,Clear,0,2013-04-25 17:53:00
2:53 PM,48.9,35.1,59,30.25,10.0,West,13.8,21.9,N/A,,Clear,280,2013-04-25 18:53:00
3:53 PM,48.0,33.1,56,30.26,10.0,West,13.8,19.6,N/A,,Clear,280,2013-04-25 19:53:00
4:53 PM,48.9,34.0,56,30.27,10.0,WNW,9.2,-,N/A,,Clear,290,2013-04-25 20:53:00
5:53 PM,48.0,32.0,54,30.28,10.0,WSW,9.2,-,N/A,,Clear,250,2013-04-25 21:53:00
6:53 PM,48.0,30.9,52,30.29,10.0,WSW,6.9,-,N/A,,Clear,240,2013-04-25 22:53:00
7:53 PM,46.9,30.9,54,30.30,10.0,SW,5.8,-,N/A,,Clear,230,2013-04-25 23:53:00
8:53 PM,45.0,32.0,60,30.31,10.0,SSW,4.6,-,N/A,,Clear,200,2013-04-26 00:53:00
9:53 PM,42.1,32.0,67,30.33,10.0,South,4.6,-,N/A,,Clear,170,2013-04-26 01:53:00
10:53 PM,42.1,32.0,67,30.34,10.0,South,4.6,-,N/A,,Clear,170,2013-04-26 02:53:00
11:53 PM,41.0,30.9,67,30.35,10.0,South,5.8,-,N/A,,Clear,170,2013-04-26 03:53:00